This demonstration page uses our WeatherBlox Daily Observations layout. Learn more.

Left ArrowRight Arrow

44.89941, -97.11507

Hourly Observations for June 24, 2018

Temp ( °F °C ) Dew Point ( °F °C ) Humidity (%) Winds ( mph kmh ) Pressure ( in mb ) Visibility ( mi km ) Precip ( " mm )
12:53 am 00:53 Cloudy 67 19.4 65 18.3 93 93 SE 7 11 29.71 1006 10 16 0.00 0.00
1:53 am 01:53 Partly Cloudy 66 18.9 65 18.3 96 96 SSE 8 13 29.71 1006 8 13 0.00 0.00
2:30 am 02:30 Mostly Cloudy 66 18.9 65 18.3 96 96 SE 8 13 29.68 1005 8 13 0.00 0.00
2:39 am 02:39 Mostly Cloudy 66 18.9 65 18.3 96 96 SE 9 15 29.68 1005 8 13 0.00 0.00
2:48 am 02:48 Mostly Cloudy 66 19 64 18 94 94 SSE 7 11 29.68 1005 8 13 0.00 0.00
2:53 am 02:53 Mostly Cloudy 66 18.9 65 18.3 96 96 SE 8 13 29.71 1006 8 13 0.00 0.00
3:31 am 03:31 Cloudy 66 18.9 65 18.3 96 96 SSE 6 9 29.68 1005 7 11 0.00 0.00
3:53 am 03:53 Cloudy with Mist and Fog 66 18.9 65 18.3 96 96 SE 7 11 29.72 1007 6 10 0.00 0.00
4:30 am 04:30 Partly Cloudy 64 17.8 64 17.8 100 100 S 6 9 29.71 1006 7 11 0.00 0.00
4:53 am 04:53 Mostly Clear with Mist and Fog 64 17.8 64 17.8 100 100 S 6 9 29.72 1007 6 10 0.00 0.00
5:30 am 05:30 Mostly Cloudy with Mist and Fog 62 16.7 62 16.7 100 100 S 3 6 29.74 1007 5 8 0.00 0.00
5:53 am 05:53 Cloudy 63 17.2 63 17.2 100 100 S 5 7 29.74 1007 8 13 0.00 0.00
6:19 am 06:19 Mostly Sunny 62 16.7 62 16.7 100 100 SSE 3 6 29.74 1007 7 11 0.00 0.00
6:53 am 06:53 Sunny 64 17.8 63 17.2 96 96 ESE 5 7 29.77 1008 10 16 0.00 0.00
7:37 am 07:37 Mostly Cloudy 65 18.3 64 17.8 97 97 ESE 7 11 29.77 1008 10 16 0.00 0.00
7:51 am 07:51 Mostly Cloudy 64 18 64 18 100 100 SSE 6 9 29.80 1009 9 14 0.00 0.00
7:53 am 07:53 Cloudy 65 18.3 64 17.8 97 97 SSE 6 9 29.79 1009 8 13 0.00 0.00
8:03 am 08:03 Cloudy 66 18.9 65 18.3 96 96 SE 5 7 29.74 1007 8 13 0.00 0.00
8:17 am 08:17 Cloudy 67 19.4 65 18.3 93 93 SE 6 9 29.77 1008 10 16 0.00 0.00
8:53 am 08:53 Mostly Cloudy 69 20.6 65 18.3 87 87 SE 9 15 29.80 1009 10 16 0.00 0.00
9:44 am 09:44 Partly Cloudy 71 21.7 63 17.2 76 76 ESE 7 11 29.77 1008 10 16 0.00 0.00
9:53 am 09:53 Mostly Cloudy 71 21.7 64 17.8 79 79 S 10 17 29.78 1009 10 16 0.00 0.00
10:53 am 10:53 Mostly Cloudy 73 22.8 62 16.7 69 69 SE 8 13 29.80 1009 10 16 0.00 0.00
11:14 am 11:14 Cloudy 73 22.8 62 16.7 69 69 SE 10 17 29.77 1008 10 16 0.00 0.00
11:53 am 11:53 Mostly Cloudy 73 22.8 62 16.7 69 69 S 10 17 29.83 1010 10 16 0.00 0.00
12:53 pm 12:53 Cloudy 75 23.9 62 16.7 64 64 SSE 14 22 29.83 1010 10 16 0.00 0.00
1:53 pm 13:53 Mostly Cloudy 79 26.1 64 17.8 60 60 S 15 24 29.83 1010 10 16 0.00 0.00
2:53 pm 14:53 Sunny 79 26.1 65 18.3 62 62 S 15 24 29.83 1010 10 16 0.00 0.00
3:53 pm 15:53 Mostly Cloudy 78 25.6 65 18.3 64 64 SSW 10 17 29.83 1010 10 16 0.00 0.00
4:53 pm 16:53 Sunny 77 25 65 18.3 66 66 SSW 13 20 29.83 1010 10 16 0.00 0.00
5:53 pm 17:53 Sunny 77 25 64 17.8 64 64 SSW 7 11 29.84 1010 10 16 0.00 0.00
6:53 pm 18:53 Mostly Cloudy 76 24.4 66 18.9 72 72 SSE 5 7 29.89 1012 10 16 0.00 0.00
7:32 pm 19:32 Mostly Cloudy with Nearby Thunderstorms 76 24.4 65 18.3 69 69 E 3 6 29.85 1011 10 16 0.00 0.00
7:53 pm 19:53 Cloudy with Nearby Thunderstorms 71 21.7 67 19.4 87 87 E 13 20 29.90 1012 10 16 0.00 0.00
8:18 pm 20:18 Cloudy 71 21.7 64 17.8 79 79 E 10 17 29.85 1011 10 16 0.00 0.00
8:53 pm 20:53 Sunny 70 21.1 67 19.4 90 90 E 9 15 29.89 1012 10 16 0.00 0.00
9:53 pm 21:53 Clear 68 20 66 18.9 93 93 ESE 10 17 29.88 1012 10 16 0.00 0.00
10:53 pm 22:53 Clear 67 19.4 64 17.8 91 91 SE 12 19 29.92 1013 10 16 0.00 0.00
11:53 pm 23:53 Clear 66 18.9 63 17.2 90 90 SSE 13 20 29.94 1014 10 16 0.00 0.00

Powered by AerisWeather